Location: Cambroso
(45.2833°N, 12.0850°E)
Time: 16:16:04
(UTC+00:00)

Cosmos 2228 - Pass Details

Date: 21 January 2021
Orbit: 589 x 617 km, 82.5° (Epoch: 27 February)

Event Time Altitude Azimuth Distance (km) Brightness Sun altitude
Rises 17:15:20 0° 344° (NNW) 2,839 6.5 -12.6°
Reaches altitude 10° 17:17:36 10° 338° (NNW) 1,935 5.7 -12.9°
Maximum altitude 17:21:38 42° 267° (W) 856 4.4 -13.6°
Drops below altitude 10° 17:25:40 10° 197° (SSW) 1,934 6.0 -14.3°
Sets 17:27:57 0° 190° (S) 2,836 6.8 -14.7°
